Theta_e
331 330 320 312 305 305 301 308 318 314 318 325 325 321 319 323 318 311 333 339 340 347 356 360 361 359 359 361 361 361 361 360 360 358 357 356 356 356 356 356 355 354 354 354 353 352 351 349 347
317 316 311 304 302 296 299 310 313 315 322 325 325 324 323 320 331 329 328 342 347 353 355 357 361 360 360 360 361 361 361 359 358 358 357 356 355 354 354 354 353 352 352 352 351 350 349 348 346
322 310 304 299 296 294 299 310 314 318 326 323 321 326 322 321 332 331 336 347 351 353 354 356 360 360 360 359 360 360 360 359 358 358 356 355 353 353 353 352 352 352 351 350 350 350 348 347 348
312 305 300 296 294 296 305 311 317 320 323 324 322 319 324 333 333 335 343 348 348 350 354 360 360 360 360 359 360 360 359 358 358 357 355 354 352 352 351 351 350 351 350 350 350 350 351 350 350
305 299 294 290 290 304 313 317 317 317 320 321 323 320 320 333 336 338 342 344 344 347 353 356 360 360 360 359 359 359 360 360 358 356 354 353 352 352 351 350 350 350 350 349 349 352 351 350 350
302 297 291 288 292 304 315 319 317 317 322 323 322 322 321 333 332 334 338 338 345 348 354 355 359 360 359 360 360 360 360 359 358 356 355 354 353 352 351 351 350 351 352 352 351 350 349 350 352
300 295 291 290 292 298 312 318 315 317 319 323 325 320 324 329 330 331 332 337 343 348 352 353 354 357 360 360 360 360 359 358 357 356 355 354 353 352 352 352 352 353 355 355 352 352 352 349 344
301 296 290 292 292 294 314 318 319 321 319 330 332 321 320 331 331 332 334 335 338 344 345 349 351 352 353 355 359 358 358 356 356 355 354 353 352 352 352 353 351 352 356 356 347 342 340 335 335
299 293 290 293 293 302 315 314 320 326 322 325 327 330 330 337 338 337 334 333 336 340 340 342 344 345 347 348 352 356 355 354 354 352 353 350 345 343 344 348 351 350 347 342 338 335 332 329 328
298 292 294 299 298 304 314 315 318 319 320 322 325 330 336 337 336 334 332 331 331 334 338 339 341 342 342 347 345 346 345 346 346 345 343 344 341 339 342 340 344 339 335 333 332 330 327 323 319
295 295 299 300 303 304 313 315 319 317 315 321 321 325 332 336 335 335 334 334 332 332 335 339 339 340 340 341 341 341 341 342 341 341 338 333 333 332 330 326 324 323 326 321 321 320 318 317 317
294 300 300 302 302 306 312 318 317 318 319 324 327 329 332 334 335 336 335 336 335 331 333 336 337 336 337 337 340 340 338 337 336 336 330 331 330 328 325 322 321 320 319 319 318 317 317 315 316
295 298 300 302 300 306 314 316 316 317 322 321 328 328 333 334 334 337 337 339 336 333 334 334 336 335 336 336 338 338 336 336 335 330 333 331 327 325 322 319 318 318 318 317 316 315 314 313 313
298 298 300 300 299 298 308 311 316 318 322 320 326 325 327 332 333 331 333 335 335 336 334 335 336 336 335 335 336 334 334 334 332 332 332 328 325 323 320 318 317 317 317 316 315 314 313 312 312
298 296 299 298 297 307 314 309 312 320 318 318 322 324 325 326 325 326 327 332 336 336 335 334 336 336 334 335 334 332 333 333 330 328 326 324 322 322 319 318 316 316 316 315 314 312 312 311 311
295 293 293 296 299 307 303 297 305 318 317 315 321 324 325 326 327 326 326 323 329 334 332 334 337 334 334 334 331 332 331 330 326 323 324 324 323 322 320 317 317 316 316 314 312 311 310 310 310
292 289 290 296 298 308 302 297 300 306 315 315 318 322 323 324 328 331 331 327 324 330 331 331 334 332 332 331 331 328 326 324 322 323 323 324 323 321 319 317 316 315 313 312 311 310 309 309 310
288 289 291 292 296 296 294 299 300 302 314 315 317 319 321 321 325 330 332 337 338 331 331 332 332 331 329 327 326 325 323 323 323 323 324 324 322 320 318 317 314 313 312 311 310 310 310 309 309
294 292 292 296 299 296 295 295 298 303 309 312 314 317 319 322 328 330 334 337 336 335 333 332 330 328 328 327 323 322 321 322 323 324 324 323 322 319 317 315 313 313 311 310 310 309 309 309 308
296 293 293 297 299 297 295 296 303 309 310 312 314 314 319 324 326 327 331 334 335 334 333 333 331 330 329 328 326 325 323 324 324 325 324 322 319 317 315 314 312 312 310 309 308 308 307 308 308
293 292 293 294 297 297 294 294 299 313 317 316 320 320 322 323 323 324 328 330 332 333 333 330 330 329 329 328 326 325 324 323 323 322 318 316 316 314 314 313 312 311 309 308 307 307 307 305 307
290 297 297 296 293 289 293 287 293 305 313 316 319 319 320 322 321 324 327 328 329 329 329 329 329 329 329 329 326 325 323 321 320 315 310 310 313 314 313 312 311 310 308 308 307 308 307 306 305
295 300 297 296 292 289 291 289 292 306 309 312 315 317 318 320 321 323 326 326 327 325 324 324 325 325 326 327 326 322 314 311 308 306 307 307 307 309 309 308 307 307 306 306 306 306 305 305 305
301 298 294 292 290 285 290 289 289 303 308 312 315 316 318 318 318 323 325 326 323 320 319 319 317 314 315 316 315 312 308 307 305 305 304 303 304 304 305 306 305 304 304 304 305 305 305 305 306
295 291 285 285 284 285 290 289 292 297 303 309 314 315 320 321 319 321 322 322 320 317 315 315 313 310 310 310 311 309 307 306 304 304 303 303 302 302 304 304 304 304 304 305 304 304 305 304 302
293 292 286 281 282 286 291 288 294 308 315 316 316 318 321 320 320 321 321 320 316 315 314 312 310 308 308 308 307 306 306 304 303 304 303 302 302 303 304 304 304 305 304 305 303 302 301 300 298
293 290 293 288 286 285 288 292 304 312 315 315 315 318 318 320 321 320 319 317 316 315 311 310 308 307 307 306 305 305 305 304 304 303 303 303 303 305 304 304 304 304 303 302 301 298 298 298 297
295 298 289 287 283 281 285 289 293 301 309 313 313 314 316 318 320 319 318 317 316 313 311 310 308 308 307 306 305 304 304 304 304 303 304 305 304 304 303 304 304 303 303 302 299 297 298 297 297
292 291 291 290 288 284 283 287 296 303 306 312 314 315 316 316 318 317 317 315 313 312 310 309 308 308 307 306 304 304 304 305 304 304 304 305 305 304 303 303 304 304 302 302 299 298 298 298 297
295 293 292 287 287 288 287 288 299 300 306 314 315 317 315 316 316 317 314 314 312 312 310 308 308 308 307 305 305 304 304 305 304 304 304 304 304 303 303 303 304 304 303 302 300 299 298 297 297
Wind_Speed
4 5 3 3 5 5 2 1 3 3 1 3 2 4 4 2 3 5 4 1 8 10 7 10 13 13 13 13 14 14 13 13 12 12 12 11 10 10 8 7 6 5 5 5 4 4 5 5 6
1 3 3 2 6 4 4 2 4 3 4 3 4 4 4 2 3 2 2 4 8 12 7 8 13 13 12 13 13 13 12 12 12 11 10 9 8 8 7 5 4 4 4 3 3 3 4 4 5
2 2 4 5 3 2 4 5 6 3 6 2 3 4 4 2 1 6 2 8 9 12 6 8 13 12 12 14 13 13 12 11 11 10 8 7 7 5 4 3 3 2 2 2 3 3 4 4 6
2 5 5 6 1 4 4 1 2 2 2 4 2 4 5 3 7 5 9 10 10 11 7 10 13 13 13 14 14 13 13 11 10 9 7 6 6 5 4 3 2 0 2 3 4 5 6 7 9
5 4 5 3 4 5 3 3 3 1 1 2 1 2 6 2 6 12 11 10 12 11 6 8 14 15 15 16 15 13 12 10 9 8 8 7 6 5 4 3 1 2 4 5 6 7 8 9 10
5 4 5 1 6 4 3 3 2 4 7 5 6 5 5 6 9 8 9 8 8 11 9 10 15 14 14 13 12 11 10 10 9 9 7 6 5 5 3 2 3 4 6 7 7 8 8 9 10
7 4 3 2 4 6 3 2 3 5 3 3 2 5 3 5 6 10 8 7 6 6 10 7 7 11 14 13 13 13 12 10 8 7 6 5 5 3 3 3 4 6 6 6 7 8 10 11 12
6 5 3 3 3 5 3 1 3 4 5 4 2 6 5 6 11 10 8 6 6 4 4 7 5 6 7 8 14 12 10 10 9 8 6 5 4 2 4 5 5 6 6 7 12 13 13 13 14
4 5 2 4 5 4 2 4 3 3 6 2 3 1 2 16 14 11 7 4 5 4 5 5 5 5 6 6 7 10 13 10 8 6 5 4 0 1 3 4 6 9 11 12 13 13 12 13 13
5 5 9 6 6 5 4 6 6 2 4 4 3 2 13 17 15 14 10 9 7 9 9 8 7 7 6 5 6 6 5 4 4 4 3 1 1 1 3 6 11 13 12 13 12 12 12 10 5
4 6 6 4 8 6 5 4 5 4 5 10 3 8 16 14 12 15 16 14 18 12 7 9 8 6 7 6 4 3 3 3 3 5 4 4 3 3 3 3 3 3 9 4 7 6 6 7 5
3 8 4 5 6 5 6 5 6 8 10 5 0 9 12 15 14 14 14 13 9 8 11 8 7 6 7 4 6 5 4 3 3 3 4 4 3 4 3 3 3 4 3 5 5 4 5 6 6
4 4 4 7 6 8 6 11 7 13 12 5 6 12 13 14 15 10 8 7 7 11 9 9 8 8 5 4 1 1 3 4 4 5 4 4 4 4 4 3 3 4 3 4 4 4 4 4 5
6 4 7 5 6 5 6 0 5 10 7 6 1 6 12 14 16 6 7 8 10 12 11 8 11 9 5 5 3 1 2 1 2 2 4 5 4 4 4 3 4 4 3 3 3 3 3 3 4
3 4 7 2 4 2 8 0 11 20 4 10 10 7 9 12 8 14 13 13 13 11 10 12 11 7 7 6 5 4 4 4 3 3 5 6 5 5 5 4 3 3 2 4 3 3 3 4 4
4 5 3 3 1 2 3 9 10 16 10 9 11 12 12 9 10 9 8 9 9 7 10 10 9 8 7 6 4 3 4 4 4 4 4 5 5 5 4 3 3 2 3 3 3 2 2 3 4
7 1 1 7 4 6 0 10 10 5 11 10 14 15 13 7 7 4 2 2 5 9 8 9 8 10 8 7 5 6 6 5 5 4 4 4 5 5 4 3 3 3 3 2 2 2 2 2 5
2 2 3 4 3 2 4 18 12 10 14 13 14 14 13 8 7 4 5 4 5 6 7 6 7 10 10 7 6 6 6 5 4 4 3 2 3 4 4 3 3 3 2 3 2 3 2 2 3
3 3 4 6 4 3 7 7 12 10 3 10 12 15 13 4 5 6 5 5 8 7 9 8 10 9 9 5 4 4 4 3 3 3 3 4 3 3 3 3 3 2 3 1 2 2 3 2 2
4 3 6 9 2 6 4 8 8 3 4 5 11 6 7 6 6 6 7 8 8 7 6 8 10 9 6 4 4 4 4 3 3 2 3 3 3 2 3 3 2 2 1 3 3 2 2 2 2
3 3 4 6 7 4 5 7 7 3 3 1 5 5 7 10 10 7 8 7 7 8 9 8 8 8 6 8 8 6 5 3 2 2 3 3 3 1 3 3 1 1 2 1 1 2 1 2 2
4 6 7 5 2 3 2 5 6 6 8 4 3 5 8 9 10 8 9 7 6 6 8 8 8 8 6 6 6 6 3 2 1 2 2 2 3 4 4 3 3 1 1 2 2 2 1 0 3
9 5 4 3 4 2 3 4 8 5 7 9 7 7 6 7 12 13 11 9 8 5 6 7 7 8 6 6 5 5 5 4 3 3 5 4 4 5 4 4 3 3 2 3 3 3 4 1 2
2 3 6 5 4 2 6 6 7 5 7 7 3 7 6 6 10 11 11 9 7 5 6 7 9 6 6 6 6 8 9 7 5 3 3 2 1 2 4 3 3 2 2 3 3 4 5 4 3
3 7 4 4 3 6 0 2 10 5 7 8 10 9 10 10 9 11 11 9 7 6 6 7 7 7 6 7 6 7 7 7 7 4 2 3 2 2 3 3 3 3 4 5 4 4 3 3 3
6 8 7 5 4 5 2 6 8 4 9 14 3 12 12 13 10 12 12 11 8 7 6 6 8 7 6 6 6 6 7 4 4 3 2 1 1 2 1 4 5 5 5 3 3 2 2 3 3
2 4 4 6 2 3 4 7 7 4 6 2 7 12 13 14 12 14 13 9 8 8 8 8 8 5 5 6 5 5 6 6 4 4 3 2 1 2 6 4 4 3 1 2 3 2 2 3 3
4 6 2 3 2 4 5 5 7 7 9 6 6 9 11 11 15 13 10 9 5 6 8 8 6 7 6 6 5 4 5 5 4 3 3 1 3 3 3 3 3 3 4 3 3 3 3 3 4
1 1 5 5 5 6 3 8 9 11 9 13 11 9 10 11 10 10 9 7 8 7 7 6 6 6 6 5 4 5 5 5 3 2 1 2 2 3 3 3 4 4 5 4 4 5 5 5 6
7 9 7 6 5 3 4 9 5 9 7 9 11 10 7 7 8 9 8 9 8 8 7 8 5 6 6 6 5 5 4 3 1 3 4 3 4 4 4 4 5 5 6 6 6 8 6 6 7
Wind_Direction
114 143 125 60 47 63 40 76 229 325 193 162 232 153 191 130 163 219 352 117 137 137 145 141 144 144 144 133 121 117 115 117 119 118 116 117 119 119 117 116 112 111 102 91 77 60 49 39 34
130 170 63 86 78 38 293 242 220 238 226 221 139 114 61 359 58 78 111 108 131 136 131 133 143 141 141 129 123 122 125 127 125 128 130 132 129 125 121 115 108 109 99 89 65 34 23 20 14
272 47 79 87 109 188 211 223 222 294 297 187 125 84 112 312 30 163 106 122 117 136 124 147 142 138 138 135 133 135 137 139 142 143 141 138 130 125 123 120 106 96 75 38 15 351 338 345 353
33 9 36 75 300 263 228 182 275 254 240 11 341 61 85 262 152 157 133 126 116 142 134 148 139 140 144 148 150 149 150 155 153 151 151 151 150 154 158 155 148 177 330 335 329 326 338 349 357
33 56 52 50 275 273 264 105 264 353 270 294 243 183 115 112 100 129 138 142 138 151 143 146 147 152 159 163 162 159 161 163 163 167 171 174 178 179 194 205 251 310 326 328 331 335 340 351 355
38 94 44 5 291 277 296 193 198 217 222 183 119 154 162 118 140 156 142 145 143 150 158 168 163 162 165 167 166 164 169 171 178 183 183 187 197 209 226 269 299 314 328 335 335 340 348 2 7
116 84 205 193 263 310 243 186 245 250 310 319 173 139 117 155 155 142 130 124 133 156 172 169 162 169 170 171 173 177 179 181 187 190 194 204 219 231 271 287 312 323 327 331 342 3 18 40 39
110 93 135 242 224 270 234 249 285 209 256 114 273 185 181 197 141 111 113 118 138 159 162 167 166 170 173 176 185 184 182 189 195 199 201 213 230 278 303 324 322 326 345 18 55 54 46 37 32
135 69 200 229 164 243 202 198 212 270 276 172 191 347 148 138 123 104 95 90 102 182 198 180 181 180 180 187 191 191 194 196 202 206 214 219 152 343 344 331 355 52 72 72 59 55 46 46 39
104 131 213 210 193 218 210 195 190 226 288 247 163 112 121 137 145 145 167 179 182 193 201 193 185 190 185 192 196 184 191 177 180 175 187 162 91 54 70 78 94 83 75 68 63 58 50 42 31
173 191 189 230 218 185 195 220 180 185 269 233 189 149 154 160 166 173 184 188 191 201 195 199 198 198 189 198 179 190 178 177 177 176 167 139 102 95 93 87 81 70 66 56 57 47 41 31 20
176 255 165 260 222 150 187 160 204 198 220 37 91 144 161 174 182 193 198 190 162 178 203 192 192 197 202 192 192 190 172 161 175 171 151 136 124 101 93 83 74 70 59 67 55 48 33 24 5
197 256 189 226 216 231 141 199 185 234 228 340 357 140 168 195 195 202 218 197 162 187 192 203 178 193 206 238 317 223 188 184 165 153 150 133 121 116 104 81 70 65 58 59 56 48 32 13 354
206 246 270 255 211 233 181 39 136 263 195 216 271 186 176 203 197 172 184 197 185 199 193 186 198 190 189 189 135 89 40 93 90 99 124 108 106 103 96 88 72 65 69 83 73 45 30 13 351
275 301 324 259 167 145 125 259 222 234 139 207 183 202 203 208 187 196 192 200 195 206 190 183 191 172 159 174 173 156 147 111 102 96 99 104 104 113 109 91 96 108 95 76 61 37 33 11 339
12 48 30 273 348 349 41 270 263 243 184 188 188 206 214 204 205 202 187 189 198 198 199 184 182 155 150 156 138 128 114 111 110 106 96 96 105 104 103 111 106 96 82 70 53 24 12 353 337
1 187 271 319 324 120 37 270 253 276 198 177 188 210 217 196 214 243 306 203 192 219 205 173 148 138 127 107 100 96 96 98 102 100 98 104 104 99 118 117 113 86 76 61 33 22 27 340 331
196 20 309 266 240 83 212 251 287 257 203 190 187 206 219 202 198 151 81 62 82 112 108 103 110 117 114 109 102 87 88 84 84 92 85 83 101 113 106 108 98 104 101 48 20 17 347 303 308
152 190 240 252 221 306 270 286 303 324 158 160 186 209 213 164 116 86 91 83 96 75 115 124 124 127 128 123 109 90 100 91 77 74 62 41 35 104 117 105 102 98 71 76 38 11 344 301 290
201 248 275 289 244 185 323 302 281 357 311 215 191 171 158 125 93 67 76 79 71 102 106 109 122 123 110 102 113 117 130 117 103 64 27 61 66 68 107 120 102 83 77 26 22 20 303 275 313
257 205 240 232 325 300 329 311 340 342 341 142 85 112 158 169 145 126 113 95 116 128 107 103 105 104 105 113 109 96 96 86 58 7 66 27 6 60 89 90 88 71 52 334 298 273 277 297 306
288 208 232 257 40 246 21 273 308 327 307 257 171 157 160 145 121 129 138 121 124 93 95 91 97 106 114 117 117 127 109 118 55 84 77 34 43 51 74 70 39 23 261 280 292 293 277 151 322
230 219 217 224 194 74 296 87 269 6 312 280 190 167 182 154 144 145 153 136 128 89 95 96 88 78 80 91 99 101 95 95 123 111 106 70 48 58 57 42 31 12 336 291 294 328 349 21 291
228 335 31 47 81 44 247 139 282 209 217 281 171 154 154 133 132 132 139 130 111 92 98 91 94 75 76 86 100 119 129 135 107 101 108 101 60 39 34 1 21 323 309 339 339 354 350 333 308
116 65 325 346 11 215 102 59 235 257 238 241 269 155 149 153 141 145 145 142 122 106 92 95 100 90 87 93 101 114 111 110 118 127 118 66 34 18 345 13 6 352 0 6 11 14 14 10 349
188 155 156 224 200 248 92 238 249 233 284 268 67 140 144 154 151 158 167 157 144 132 119 119 100 91 93 93 95 99 109 102 101 108 96 142 146 229 293 29 14 18 24 36 39 23 351 347 323
179 164 184 120 18 81 247 295 315 317 320 0 136 144 156 164 163 169 169 160 154 152 139 113 104 125 115 117 122 111 101 104 126 141 163 153 203 7 37 17 359 344 328 331 350 336 323 328 320
161 165 66 15 196 244 288 289 239 264 250 241 212 190 169 161 165 164 152 152 143 136 107 113 152 144 146 136 134 131 119 131 149 148 96 15 9 25 4 333 318 281 277 286 319 299 298 312 306
17 256 60 125 145 181 222 259 221 230 222 207 210 203 186 169 159 151 156 135 127 116 125 151 156 153 148 152 151 137 134 142 121 78 279 299 312 290 286 286 294 282 275 277 281 274 273 273 285
170 197 153 134 259 210 171 267 272 253 264 178 195 198 181 163 152 150 140 133 137 142 162 167 166 167 165 152 152 124 114 103 107 248 252 252 268 282 273 278 285 282 266 267 263 271 273 262 273